User: anonymous   Login
Location: Lombard
(41.8800°N, 88.0080°W)
Time: 02:55:49
(UTC-05:00)
Language:

KKS-1 - Orbit

View from above orbital plane
View from above orbital plane
View from above satellite
View from above satellite

Ground track
Ground track

The orbit data is extracted from the following two-line orbital elements,

1 33499U 09002H   22136.17697685  .00000951  00000-0  14598-3 0  9997
2 33499  98.2222  17.6813 0010286  62.4075 297.8178 14.75959909715915
Epoch (UTC): 16 May 2022 04:14:50
Eccentricity: 0.0010286
inclination: 98.2222°
perigee height: 635 km
apogee height: 649 km
right ascension of ascending node: 17.6813°
argument of perigee: 62.4075°
revolutions per day: 14.75959909
mean anomaly at epoch: 297.8178°
orbit number at epoch: 71591

The dashed part of the orbit path shows where the satellite is in the earth's shadow,  

DLR